Lincoln, CA

7:02 PM PST on December 05, 2016 (GMT -0800)
Lincoln Regional-Harder

Weather History for KLHM - September, 2012

Change the Weather History Date:

Saturday, September 1, 2012

  Actual Average (KAUN) Record (KAUN)
Temperature  
Mean Temperature 64 °F -  
Max Temperature 78 °F 88 °F 104 °F (1950)
Min Temperature 51 °F 60 °F 49 °F (1957)
Growing Degree Days 14 (Base 50)    
Moisture  
Dew Point 49 °F    
Average Humidity 62    
Maximum Humidity 88    
Minimum Humidity 30    
Precipitation  
Precipitation 0.00 in - - ()
Sea Level Pressure  
Sea Level Pressure 29.96 in    
Wind  
Wind Speed 7 mph (SSE)    
Max Wind Speed 13 mph    
Max Gust Speed -    
Visibility 10 miles    
Events      
Averages and records for this station are not official NWS values.
T = Trace of Precipitation, MM = Missing Value Source: NWS Daily Summary

Daily Weather History Graph

Daily Weather History Graph

Search for Another Location

Airport or City:

Trip Planner

Search our weather history database for the weather conditions in past years. The results will help you decide how hot, cold, wet, or windy it might be!

Date:

Astronomy

Sep. 01, 2012 Rise Set
Actual Time 6:34 AM PDT 7:34 PM PDT
Civil Twilight 6:07 AM PDT 8:02 PM PDT
Nautical Twilight 5:35 AM PDT 8:34 PM PDT
Astronomical Twilight 5:01 AM PDT 9:08 PM PDT
Moon 7:55 PM PDT (9/1) 7:46 AM PDT (9/1)
Length of Visible Light 13h 54m
Length of Day
13h 00m
Full, 98% of the Moon is Illuminated
Sep 1
Full
Sep 8
Last Quarter
Sep 15
New
Sep 22
First Quarter
Sep 29
Full

Hourly Weather History & Observations

Time (PDT) Temp. Dew Point Humidity Pressure Visibility Wind Dir Wind Speed Gust Speed Precip Events Conditions
12:15 AM 55.4 °F 50.0 °F 82% 29.92 in 10.0 mi SSE 8.1 mph - N/A   Clear
12:35 AM 55.4 °F 50.0 °F 82% 29.92 in 10.0 mi SSE 8.1 mph - N/A   Clear
12:55 AM 55.4 °F 50.0 °F 82% 29.92 in 10.0 mi SE 8.1 mph - N/A   Clear
1:35 AM 55.4 °F 50.0 °F 82% 29.93 in 10.0 mi ESE 6.9 mph - N/A   Clear
1:55 AM 55.4 °F 50.0 °F 82% 29.93 in 10.0 mi ESE 5.8 mph - N/A   Clear
2:15 AM 55.4 °F 50.0 °F 82% 29.94 in 10.0 mi SE 6.9 mph - N/A   Clear
2:55 AM 55.4 °F 50.0 °F 82% 29.93 in 10.0 mi SE 9.2 mph - N/A   Clear
3:15 AM 55.4 °F 50.0 °F 82% 29.93 in 10.0 mi SE 8.1 mph - N/A   Clear
3:35 AM 55.4 °F 50.0 °F 82% 29.94 in 10.0 mi SE 9.2 mph - N/A   Clear
3:55 AM 55.4 °F 50.0 °F 82% 29.94 in 10.0 mi SSE 9.2 mph - N/A   Clear
4:15 AM 55.4 °F 50.0 °F 82% 29.94 in 10.0 mi SSE 10.4 mph - N/A   Clear
4:35 AM 53.6 °F 50.0 °F 88% 29.94 in 10.0 mi SSE 12.7 mph - N/A   Clear
4:55 AM 53.6 °F 50.0 °F 88% 29.94 in 10.0 mi SSE 9.2 mph - N/A   Clear
5:15 AM 53.6 °F 50.0 °F 88% 29.95 in 10.0 mi SSE 6.9 mph - N/A   Clear
5:35 AM 53.6 °F 50.0 °F 88% 29.95 in 10.0 mi SSE 6.9 mph - N/A   Clear
5:55 AM 53.6 °F 50.0 °F 88% 29.95 in 10.0 mi SE 8.1 mph - N/A   Clear
6:15 AM 53.6 °F 50.0 °F 88% 29.96 in 10.0 mi ESE 5.8 mph - N/A   Clear
6:35 AM 51.8 °F 48.2 °F 88% 29.97 in 10.0 mi ESE 3.5 mph - N/A   Clear
6:55 AM 51.8 °F 48.2 °F 88% 29.98 in 10.0 mi East 3.5 mph - N/A   Mostly Cloudy
7:15 AM 53.6 °F 50.0 °F 88% 29.98 in 10.0 mi ESE 5.8 mph - N/A   Overcast
7:35 AM 55.4 °F 50.0 °F 82% 29.99 in 10.0 mi SE 8.1 mph - N/A   Mostly Cloudy
7:55 AM 57.2 °F 50.0 °F 77% 30.00 in 10.0 mi SE 5.8 mph - N/A   Scattered Clouds
8:15 AM 57.2 °F 50.0 °F 77% 30.00 in 10.0 mi SSE 8.1 mph - N/A   Mostly Cloudy
8:35 AM 59.0 °F 50.0 °F 72% 30.01 in 10.0 mi SSE 8.1 mph - N/A   Overcast
8:55 AM 59.0 °F 50.0 °F 72% 30.01 in 10.0 mi SE 8.1 mph - N/A   Scattered Clouds
9:15 AM 60.8 °F 50.0 °F 68% 30.01 in 10.0 mi SE 9.2 mph - N/A   Clear
9:55 AM 62.6 °F 50.0 °F 63% 30.01 in 10.0 mi South 4.6 mph - N/A   Clear
10:15 AM 62.6 °F 50.0 °F 63% 30.01 in 10.0 mi SE 6.9 mph - N/A   Clear
10:35 AM 64.4 °F 50.0 °F 59% 30.02 in 10.0 mi SSW 9.2 mph - N/A   Clear
10:55 AM 62.6 °F 50.0 °F 63% 30.02 in 10.0 mi SW 8.1 mph - N/A   Clear
11:15 AM 64.4 °F 50.0 °F 59% 30.02 in 10.0 mi WSW 6.9 mph - N/A   Clear
11:55 AM 66.2 °F 50.0 °F 56% 30.02 in 10.0 mi SSW 5.8 mph - N/A   Clear
12:15 PM 68.0 °F 50.0 °F 52% 30.01 in 10.0 mi SW 4.6 mph - N/A   Clear
12:35 PM 68.0 °F 50.0 °F 52% 30.01 in 10.0 mi SW 3.5 mph - N/A   Clear
12:55 PM 69.8 °F 50.0 °F 49% 30.00 in 10.0 mi South 5.8 mph - N/A   Clear
1:15 PM 69.8 °F 50.0 °F 49% 29.99 in 10.0 mi Calm Calm - N/A   Clear
1:35 PM 71.6 °F 50.0 °F 46% 29.99 in 10.0 mi SW 5.8 mph - N/A   Clear
1:55 PM 71.6 °F 50.0 °F 46% 29.99 in 10.0 mi WSW 5.8 mph - N/A   Clear
2:15 PM 73.4 °F 48.2 °F 41% 29.98 in 10.0 mi SSW 4.6 mph - N/A   Clear
2:35 PM 77.0 °F 48.2 °F 36% 29.98 in 10.0 mi West 4.6 mph - N/A   Clear
2:55 PM 77.0 °F 44.6 °F 32% 29.97 in 10.0 mi SSW 4.6 mph - N/A   Clear
3:15 PM 77.0 °F 44.6 °F 32% 29.96 in 10.0 mi South 3.5 mph - N/A   Clear
3:35 PM 78.8 °F 44.6 °F 30% 29.95 in 10.0 mi WSW 4.6 mph - N/A   Clear
3:55 PM 78.8 °F 46.4 °F 32% 29.95 in 10.0 mi SW 4.6 mph - N/A   Clear
4:15 PM 78.8 °F 44.6 °F 30% 29.94 in 10.0 mi WSW 6.9 mph - N/A   Clear
4:35 PM 78.8 °F 44.6 °F 30% 29.94 in 10.0 mi Calm Calm - N/A   Clear
4:55 PM 78.8 °F 44.6 °F 30% 29.93 in 10.0 mi West 4.6 mph - N/A   Clear
5:15 PM 78.8 °F 46.4 °F 32% 29.93 in 10.0 mi NW 4.6 mph - N/A   Clear
5:35 PM 78.8 °F 46.4 °F 32% 29.93 in 10.0 mi WNW 3.5 mph - N/A   Clear
5:55 PM 78.8 °F 46.4 °F 32% 29.93 in 10.0 mi NW 4.6 mph - N/A   Clear
6:15 PM 78.8 °F 46.4 °F 32% 29.93 in 10.0 mi SW 5.8 mph - N/A   Clear
6:55 PM 77.0 °F 46.4 °F 34% 29.93 in 10.0 mi WSW 3.5 mph - N/A   Clear
7:15 PM 75.2 °F 46.4 °F 36% 29.93 in 10.0 mi Calm Calm - N/A   Clear
7:35 PM 73.4 °F 46.4 °F 38% 29.93 in 10.0 mi SSW 3.5 mph - N/A   Clear
7:55 PM 69.8 °F 46.4 °F 43% 29.93 in 10.0 mi Calm Calm - N/A   Clear
8:15 PM 71.6 °F 46.4 °F 41% 29.93 in 10.0 mi Calm Calm - N/A   Clear
8:55 PM 62.6 °F 44.6 °F 52% 29.94 in 10.0 mi NE 4.6 mph - N/A   Clear
9:15 PM 60.8 °F 50.0 °F 68% 29.94 in 10.0 mi ENE 4.6 mph - N/A   Clear
9:55 PM 59.0 °F 48.2 °F 67% 29.94 in 10.0 mi ENE 5.8 mph - N/A   Clear
10:15 PM 59.0 °F 50.0 °F 72% 29.94 in 10.0 mi East 6.9 mph - N/A   Clear
10:35 PM 57.2 °F 48.2 °F 72% 29.94 in 10.0 mi NE 5.8 mph - N/A   Clear
10:55 PM 57.2 °F 48.2 °F 72% 29.94 in 10.0 mi ENE 6.9 mph - N/A   Clear
11:15 PM 57.2 °F 48.2 °F 72% 29.95 in 10.0 mi South 3.5 mph - N/A   Clear
11:35 PM 59.0 °F 46.4 °F 63% 29.95 in 10.0 mi Calm Calm - N/A   Clear
11:55 PM 55.4 °F 48.2 °F 77% 29.94 in 10.0 mi NE 3.5 mph - N/A   Clear